Location: Acheville
(50.3840°N, 2.8827°E)
Time: 11:03:03
(UTC+00:00)

Cosmos 1953 - Pass Details

Date: 24 October 2021
Orbit: 537 x 557 km, 82.5° (Epoch: 30 November)

Event Time Altitude Azimuth Distance (km) Brightness Sun altitude
Rises 17:29:57 0° 191° (S) 2,730 6.1 -8.8°
Reaches altitude 10° 17:32:06 10° 193° (SSW) 1,841 5.3 -9.1°
Maximum altitude 17:36:10 80° 280° (W) 574 2.5 -9.8°
Drops below altitude 10° 17:40:15 10° 8° (N) 1,855 4.9 -10.4°
Sets 17:42:27 0° 10° (N) 2,754 5.7 -10.8°
